Dewpoint
57 57 57 57 57 57 57 56 56 55 55 56 55 55 55 54 54 53 52 52 52 54 55 57 57 57 47 37 36 41 53 52 43 44 38 35 31 31 29 23 31 29 29 32 33 33 32
57 58 58 58 58 58 58 57 57 56 56 56 56 56 56 55 54 55 54 53 52 53 55 56 57 55 43 30 41 39 40 44 40 39 33 33 31 32 28 28 29 33 33 32 34 31 32
59 59 59 59 59 59 58 58 58 57 57 57 57 56 56 56 55 54 54 53 52 53 55 56 56 44 38 32 36 40 37 40 40 39 36 36 36 34 33 30 33 33 31 31 31 31 30
60 60 60 60 60 60 59 59 59 58 58 57 57 57 57 57 56 56 55 54 54 54 55 56 55 42 34 42 41 36 34 35 36 37 39 39 37 36 37 33 32 28 28 26 30 32 32
62 62 62 61 61 61 61 60 60 59 58 58 57 57 57 57 57 56 55 55 55 56 54 54 45 41 31 43 35 36 37 35 36 35 40 29 37 34 35 29 24 27 20 22 28 31 31
60 60 60 60 61 62 62 61 61 60 60 59 58 58 57 57 56 55 54 54 53 51 46 41 31 34 32 31 37 37 35 37 35 36 37 35 33 29 30 25 17 17 20 19 17 29 30
57 57 57 58 58 59 59 60 61 61 60 59 58 58 57 57 56 54 50 45 37 40 38 32 31 30 29 35 39 36 36 35 34 32 27 32 26 23 23 23 20 16 15 14 13 25 28
54 54 54 55 55 57 57 58 59 60 60 60 59 57 57 56 56 52 47 37 41 42 35 27 25 26 29 37 31 34 34 31 30 27 26 26 24 23 22 21 20 18 17 16 17 27 27
54 54 53 53 53 53 55 57 58 58 60 60 59 58 57 55 54 45 39 39 44 44 36 26 30 27 30 33 27 29 32 31 27 26 24 21 20 20 18 18 16 15 14 16 14 20 23
52 53 53 53 53 53 52 54 57 57 57 58 58 58 56 54 50 46 37 39 44 46 32 26 28 33 32 35 30 34 35 33 26 22 21 20 20 19 19 15 14 12 15 16 15 15 16
51 51 52 53 53 53 53 53 53 56 56 56 57 58 56 53 44 36 35 40 43 44 28 29 29 34 35 32 32 33 33 34 26 23 23 21 20 21 21 17 16 14 22 19 18 17 16
51 51 51 53 53 53 53 53 53 54 55 55 56 56 54 54 51 40 42 43 43 34 26 27 30 29 30 30 29 30 30 32 30 27 23 22 25 24 23 22 23 21 18 18 18 17 17
51 51 51 52 52 52 53 53 52 52 53 54 53 54 53 50 49 44 44 38 31 28 30 22 27 28 26 26 27 28 26 26 23 23 23 23 22 24 24 23 24 20 16 19 17 18 14
52 51 51 51 51 52 52 52 52 52 52 53 53 53 53 50 49 46 42 33 28 27 27 26 26 25 23 23 23 25 25 23 25 23 22 24 22 23 25 22 21 21 17 21 13 15 13
50 51 51 51 51 50 51 51 51 53 52 52 53 51 49 49 46 44 37 32 26 28 25 22 28 28 26 25 22 20 22 23 21 21 19 18 17 23 24 23 22 22 19 18 16 14 14
48 49 50 50 50 51 50 50 49 50 52 52 48 47 47 45 45 42 37 30 28 30 29 31 26 28 25 24 24 26 25 24 23 20 18 18 16 20 21 23 23 21 21 18 18 13 8
47 48 49 49 50 51 51 50 49 49 51 51 48 42 44 45 44 38 31 30 29 30 31 31 27 27 27 31 30 29 27 26 25 20 19 17 17 18 19 20 20 21 19 18 18 16 13
45 47 47 48 49 50 50 50 49 48 51 49 45 33 45 45 38 39 32 29 35 34 37 34 34 32 32 29 27 27 27 28 29 28 27 28 19 17 16 17 18 18 17 16 14 11 15
43 44 47 47 49 49 49 49 49 48 49 46 40 38 46 43 32 32 34 32 34 34 33 30 31 35 34 33 30 34 33 36 33 25 35 34 29 25 22 23 13 15 17 17 16 17 14
44 44 45 46 47 49 49 50 50 48 48 47 41 33 39 40 39 35 32 29 28 37 35 33 34 33 33 31 31 33 30 31 32 30 30 34 31 29 25 24 24 16 19 20 18 19 15
44 43 44 44 46 47 48 49 50 49 48 46 41 34 35 33 35 35 34 35 32 32 36 36 36 33 30 31 30 30 29 29 31 32 35 32 26 27 27 27 27 27 27 27 28 20 17
45 43 44 43 43 45 47 48 49 49 47 44 38 36 36 34 33 33 36 33 32 31 31 35 34 31 30 30 30 29 30 30 30 31 31 33 27 29 28 28 28 28 29 28 28 27 23
44 44 43 44 43 44 47 47 48 48 47 42 41 41 38 33 30 30 34 34 34 31 32 32 32 33 32 33 33 34 34 34 33 32 31 31 27 26 22 23 26 25 28 28 27 27 26
44 44 44 44 44 45 46 46 47 48 48 44 43 41 36 30 31 29 27 28 28 30 30 32 35 34 34 36 36 35 33 32 33 31 33 29 28 28 23 24 17 20 17 19 23 23 21
45 44 44 44 44 44 45 45 46 47 48 45 44 41 36 31 31 30 29 29 29 35 35 35 36 35 36 34 29 26 22 26 25 30 30 30 28 24 21 20 22 24 12 12 16 20 19
44 44 44 44 44 45 45 44 45 46 48 46 45 45 41 34 31 32 31 32 29 29 31 34 33 34 34 31 29 19 19 18 19 22 23 22 27 23 22 20 18 17 22 25 24 20 19
43 44 44 44 45 45 45 45 46 47 47 46 43 45 42 35 34 36 33 35 36 34 32 31 32 30 32 27 24 22 20 28 18 19 20 20 22 18 19 19 20 19 20 24 19 14 20
44 44 44 44 44 44 45 46 47 48 48 46 42 44 41 36 35 37 38 35 34 34 28 29 29 29 28 24 25 24 19 21 22 22 22 22 21 22 22 18 15 20 21 15 17 20 22
44 43 44 44 44 43 45 46 46 47 48 46 41 44 45 39 33 34 33 33 33 34 35 33 29 29 32 27 23 25 23 23 20 20 26 20 18 17 18 15 22 22 20 22 22 20 18
Lifted_Index
7 7 7 7 8 8 8 9 9 10 10 10 9 9 10 10 10 11 11 11 11 10 9 8 8 9 9 8 9 10 11 11 11 10 10 9 9 8 8 8 8 7 7 8 8 8 8
6 6 6 6 7 7 8 8 9 9 9 9 9 9 9 10 10 10 11 11 11 10 9 8 8 9 9 8 9 11 11 11 11 10 10 9 9 8 8 8 8 7 7 8 8 8 8
5 5 5 5 5 6 6 7 7 8 8 9 9 9 9 9 10 10 10 11 11 10 9 8 8 9 8 8 9 11 11 10 10 10 10 9 9 8 8 7 7 7 7 7 7 7 7
5 5 5 5 5 5 5 6 6 6 7 7 8 8 9 9 9 10 10 10 10 10 9 9 9 9 8 8 10 10 10 10 10 10 10 10 9 8 7 7 7 6 6 5 6 7 7
5 5 5 5 5 5 5 5 5 6 6 6 6 7 8 8 9 10 10 11 11 10 10 10 10 9 8 9 10 10 10 10 9 9 9 9 9 8 7 6 5 5 4 4 5 6 7
6 6 6 6 6 6 6 6 6 6 6 6 6 6 6 7 7 9 11 11 10 10 10 10 10 9 9 9 10 10 10 10 9 9 8 8 8 7 6 5 4 4 4 4 6 7 7
8 8 9 9 8 8 8 7 7 7 7 7 7 6 6 6 7 9 11 10 10 10 9 9 9 9 10 10 10 11 11 10 9 8 7 7 6 5 5 6 5 4 4 4 5 6 7
11 11 11 11 11 10 10 9 8 8 7 7 7 7 7 7 7 9 10 9 10 10 8 7 7 8 10 10 10 10 10 10 8 7 7 6 5 5 5 6 6 5 4 4 5 6 7
12 12 12 12 12 12 12 11 10 9 9 8 8 8 8 7 8 8 8 10 12 11 8 6 6 8 10 10 9 9 10 9 8 6 6 6 5 5 5 5 5 4 4 4 4 5 6
13 13 12 12 13 13 13 12 11 10 10 9 9 8 8 8 7 7 8 11 13 11 8 7 7 9 10 10 9 9 10 9 7 6 6 6 6 5 5 4 4 4 4 5 4 4 4
14 13 13 13 13 13 13 13 12 11 11 11 10 9 8 8 8 7 8 10 12 9 6 6 8 9 10 9 9 9 10 9 7 6 6 6 6 5 5 5 5 5 5 5 5 4 4
14 14 13 13 13 13 13 13 13 12 12 11 11 10 9 9 8 8 8 9 9 7 6 6 8 8 8 8 8 9 9 9 7 6 5 5 5 6 5 5 6 5 5 5 4 4 3
14 14 14 14 13 13 13 13 13 13 12 12 12 11 10 9 9 9 9 8 8 7 6 7 8 7 7 7 7 8 8 7 6 5 4 4 4 5 5 5 5 5 4 3 2 2 2
14 14 15 14 14 14 13 13 13 13 13 13 13 12 11 10 9 9 9 8 7 7 7 7 7 7 7 7 7 7 7 7 6 5 4 3 4 5 5 5 5 5 4 2 2 2 2
15 15 15 15 14 14 14 14 13 13 13 13 13 13 11 10 9 9 9 8 7 8 8 8 8 8 7 7 8 8 8 7 7 6 6 5 5 6 6 6 6 5 4 3 3 2 2
16 16 15 15 14 14 14 14 14 13 13 13 13 12 12 11 10 9 9 9 9 9 9 8 8 8 8 8 8 8 8 8 8 7 7 6 6 7 7 7 6 6 5 4 4 2 1
17 16 16 15 14 14 14 14 14 14 13 13 13 13 12 11 11 10 10 10 10 9 9 9 9 9 8 8 8 8 8 8 7 7 6 6 6 7 7 7 6 5 5 5 4 3 2
18 17 16 15 14 14 14 13 14 14 13 13 13 13 13 12 11 11 11 10 10 10 9 9 9 9 8 8 8 8 8 7 7 7 6 5 5 6 7 6 6 5 4 4 4 4 3
18 17 16 15 14 14 13 13 13 13 13 13 13 13 13 12 12 11 11 11 10 10 9 9 9 8 8 8 8 8 7 7 6 6 6 5 4 5 6 5 4 4 4 4 4 4 4
17 17 16 15 14 14 13 13 13 13 13 13 13 13 12 12 12 11 11 11 10 10 9 9 8 8 7 7 7 7 7 6 6 5 5 4 3 3 4 4 3 2 3 3 3 3 3
17 16 16 15 15 14 14 13 13 13 13 13 13 12 12 12 12 11 11 10 10 9 8 8 7 7 6 6 6 6 6 5 5 4 3 3 3 3 3 3 2 2 2 2 2 2 2
16 16 16 16 15 15 14 13 13 12 13 13 12 12 12 12 11 11 10 9 9 8 7 6 5 5 4 4 4 4 4 4 4 3 2 2 2 2 2 2 2 2 2 2 2 2 2
16 16 16 15 15 15 14 13 13 12 12 12 12 11 11 11 11 10 9 8 7 7 6 5 3 3 3 3 3 3 3 3 3 2 2 2 2 1 2 2 2 2 2 2 2 2 2
15 15 15 15 15 14 14 13 12 12 12 12 11 10 11 11 10 9 8 7 6 5 4 3 2 2 2 2 2 2 2 2 2 1 1 1 1 1 1 1 1 2 2 3 3 3 3
15 15 15 14 14 14 13 13 12 11 10 10 10 9 9 10 9 8 7 6 5 4 3 2 1 1 1 2 2 2 1 1 1 1 0 0 0 1 1 0 1 2 3 3 3 4 4
15 14 14 14 13 13 12 11 10 9 8 8 8 7 7 8 8 7 6 5 3 2 2 1 1 1 1 1 1 1 1 0 0 0 0 1 1 1 1 1 1 3 4 5 4 4 5
14 14 13 13 12 11 11 10 9 7 7 6 6 6 5 6 6 6 4 3 2 1 1 1 1 1 1 1 1 0 0 0 0 1 1 1 1 1 2 2 2 4 5 5 5 5 6
13 13 13 12 11 10 9 8 7 5 5 5 5 5 4 4 5 4 3 2 1 1 1 2 2 2 1 1 1 0 0 0 1 1 1 1 1 1 2 2 3 5 6 6 6 7 7
13 13 12 12 11 10 8 7 6 4 3 4 4 4 4 4 4 4 3 2 1 1 1 2 2 2 1 1 1 1 1 1 1 1 1 1 1 2 2 2 5 6 7 7 8 8 8